EA1HTW-1 Weather Reports


time (UTC)temp
C
wind
direction
speed
KPH
gust
KPH
rain 1hr
cm
rain 24hr
cm
rain mn
cm
humidity
%
barometer
mb
20260503194924 11 22 0.0 0.0 0.00 1.30 1.14 94 985.7
20260503193923 11 292 0.0 0.0 0.03 1.32 1.14 93 985.6
20260503193117 11 292 0.0 0.0 0.10 1.32 1.14 93 985.6
20260503192922 11 292 0.0 0.0 0.10 1.32 1.14 93 985.6
20260503191923 11 315 0.0 0.0 0.20 1.35 1.14 93 985.6
20260503185924 11 292 0.0 0.0 0.48 1.52 1.14 93 985.3
20260503184923 11 270 0.0 1.6 0.48 1.60 1.14 92 985.3
20260503182923 11 330 0.0 1.6 0.38 1.50 1.04 91 985.4
20260503181921 11 315 0.0 0.0 0.28 1.37 0.94 90 985.5
20260503180924 11 0 3.2 4.8 0.13 1.22 0.79 89 985.4
20260503175954 11 68 1.6 3.2 0.00 1.12 0.66 89 985.4
20260503175923 11 68 1.6 3.2 0.00 1.12 0.66 89 985.4
20260503174922 11 176 0.0 3.2 0.00 1.12 0.66 88 985.3
20260503172923 12 172 3.2 8.0 0.00 1.12 0.66 85 985.1
20260503171922 13 114 1.6 3.2 0.00 1.12 0.66 86 984.8
20260503170923 13 37 0.0 1.6 0.00 1.12 0.66 84 984.7
20260503150922 14 188 0.0 0.0 0.00 1.37 0.61 80 984.9
20260503130923 15 178 1.6 3.2 0.00 1.37 0.61 82 984.7
20260503072921 11 159 0.0 1.6 0.00 0.84 0.05 96 984.9
20260503071921 11 134 0.0 1.6 0.00 0.84 0.05 96 985.0
20260503054923 11 0 0.0 0.0 0.05 0.84 0.05 96 984.6
20260503053922 11 0 0.0 0.0 0.05 0.84 0.05 96 984.6
20260503052919 11 22 0.0 0.0 0.05 0.84 0.05 96 984.5
20260503051922 11 22 0.0 0.0 0.05 0.84 0.05 96 984.5
20260503050923 11 22 0.0 0.0 0.00 0.79 0.00 96 984.5
20260503045921 11 22 0.0 0.0 0.00 0.79 0.00 96 984.5
20260503044922 11 22 0.0 0.0 0.00 0.79 0.00 96 984.5
20260503043305 11 22 0.0 0.0 0.00 0.79 0.00 96 984.5
20260503042922 11 22 0.0 0.0 0.00 0.79 0.00 96 984.5
20260503041922 11 22 0.0 0.0 0.00 0.79 0.00 96 984.6
20260503035921 11 22 0.0 0.0 0.00 0.79 0.00 96 984.7
20260503034923 11 0 0.0 0.0 0.00 0.79 0.00 96 984.8
20260503031921 11 338 0.0 0.0 0.00 0.79 0.00 96 984.9
20260503030922 11 338 0.0 0.0 0.00 0.79 0.00 96 984.8
20260503025920 11 338 0.0 0.0 0.00 0.79 0.00 96 985.0
20260503024921 11 22 0.0 0.0 0.00 0.79 0.00 96 985.0
20260503022920 11 22 0.0 0.0 0.00 0.79 0.00 95 985.1
20260503015920 11 0 0.0 0.0 0.00 0.79 0.00 95 985.2
20260503014921 11 0 0.0 0.0 0.00 0.79 0.00 95 985.0
20260503013921 11 349 0.0 0.0 0.00 0.79 0.00 95 985.1
20260503012918 11 0 0.0 0.0 0.00 0.79 0.00 95 985.3
20260503011921 11 338 0.0 0.0 0.00 0.79 0.00 95 985.5
20260503005920 11 0 0.0 0.0 0.00 0.79 0.00 95 985.7
20260503004920 11 0 0.0 0.0 0.00 0.79 0.00 95 985.8
20260503002918 11 0 0.0 0.0 0.00 0.79 0.00 95 985.9
20260502235919 11 338 0.0 0.0 0.00 0.79 0.00 95 986.3
20260502234920 11 338 0.0 0.0 0.00 0.79 0.00 95 986.2
20260502233922 11 338 0.0 0.0 0.00 0.79 0.00 94 986.3
20260502231920 11 0 0.0 0.0 0.00 0.79 0.00 94 986.2
20260502230922 11 0 0.0 0.0 0.00 0.79 0.00 94 986.3
20260502223925 11 350 0.0 1.6 0.00 0.79 0.00 94 986.3
20260502221924 11 0 0.0 0.0 0.00 0.79 0.00 94 986.5
20260502220925 12 338 1.6 1.6 0.00 0.79 0.00 93 986.6
20260502215927 12 0 0.0 0.0 0.00 0.79 0.79 93 986.6
20260502212925 12 338 0.0 0.0 0.03 0.79 0.79 93 986.6
20260502211925 12 0 0.0 1.6 0.03 0.79 0.79 93 986.7
20260502210925 12 0 0.0 0.0 0.05 0.79 0.79 93 986.6
20260502205926 12 338 0.0 0.0 0.13 0.79 0.79 93 986.7
20260502204925 12 112 0.0 1.6 0.15 0.79 0.79 93 986.4
20260502202925 12 338 0.0 0.0 0.15 0.76 0.76 93 986.2
20260502201926 12 338 0.0 1.6 0.18 0.76 0.76 93 986.1